Location: The Saddle
(36.8333°N, 80.3417°W)
Time: 04:34:48
(UTC-04:00)

Vanguard 3 - Pass Details

Date: 01 March 2024
Orbit: 510 x 3234 km, 33.3° (Epoch: 24 April)

Event Time Altitude Azimuth Distance (km) Brightness Sun altitude
Rises 20:27:14 0° 253° (WSW) 6,366 12.6 -26.9°
Reaches altitude 10° 20:31:01 10° 252° (WSW) 5,605 12.1 -27.6°
Maximum altitude 20:49:38 77° 170° (S) 3,295 9.9 -31.2°
Enters shadow 20:57:25 48° 97° (E) 3,796 10.0 -32.7°
